[[{"header":{"parameterUnit":"m.s-1","parameterCategory":1,"la1":30.2991,"la2":30.254,"lo1":-89.0895,"lo2":-89.0444,"dy":0.0017,"dx":0.0017,"nx":28,"ny":28,"refTime":"2024-04-03T09:00:00:Z","depth":0,"parameterNumber":2,"parameterNumberName":"U-component_of_WINDS"},"data":[0,0,0,0,0,0,0,0,0,0,0,0,0,0,0,0,0,0,0,0,0,0,0,0,0,0,0,0,0,0,0,0,0,0,0,0,0,0,0,0,0,0,0,0,0,0,0,0,0,0,0,0,0,0,0,0,0,0,4.5019,4.5021,0,4.5191,4.5193,4.5195,4.5156,4.5152,4.5149,4.5146,4.5324,4.5331,4.5339,0,0,0,0,0,0,0,0,0,0,0,0,0,4.4656,4.4663,4.5018,4.5021,4.5023,4.5191,4.5193,4.5196,4.5156,4.5152,4.5148,4.5144,4.5321,4.533,4.534,0,0,0,0,0,0,0,0,0,0,0,0,0,4.482,4.4665,4.5018,4.5023,4.5025,4.519,4.5193,4.5196,4.5157,4.5152,4.5147,4.5142,4.5318,4.533,4.5341,4.5512,0,0,4.5377,4.5382,0,0,0,0,0,0,0,0,4.481,4.4833,4.502,4.5023,4.5026,4.5147,4.5131,4.5302,4.5158,4.5107,4.5146,4.514,4.5269,4.5284,4.5328,4.552,4.5528,4.5378,4.5385,4.539,4.5393,0,0,0,0,0,0,0,4.4799,4.4825,4.5087,4.5023,4.5027,4.5018,4.5035,4.5163,4.5214,4.5111,4.5109,4.513,4.527,4.5316,4.5332,4.5531,4.5378,4.5388,4.5395,4.54,4.5873,4.5878,0,0,0,0,0,0,4.4785,4.4816,4.5081,4.5092,4.4904,4.5028,4.5048,4.5113,4.5212,4.5222,4.5134,4.5127,4.5299,4.5318,4.5338,4.5544,4.539,4.5401,4.5408,4.5867,4.5874,4.588,0,0,0,0,0,0,4.4778,4.4809,4.5074,4.4954,4.4987,4.504,4.5113,4.5119,4.5166,4.5229,4.5238,4.5172,4.5296,4.5321,4.5469,4.555,4.5406,4.5417,4.5861,4.5869,4.5877,4.5959,0,0,0,0,0,0,4.4767,4.4807,4.4872,4.4955,4.4993,4.5203,4.5118,4.5126,4.5186,4.5179,4.5268,4.5278,4.5294,4.5452,4.5481,4.5563,4.5426,4.5853,4.5864,4.5874,4.5949,4.5969,4.5986,0,0,0,0,0,4.4755,4.4888,4.4875,4.4908,4.5076,4.5207,4.5229,4.5245,4.5193,4.5259,4.5299,4.5275,4.5536,4.5467,4.5499,4.5587,4.5848,4.5861,4.5873,4.5941,4.5965,4.5986,0,0,0,0,0,0,4.4813,4.4899,4.4886,4.5051,4.5122,4.52,4.5284,4.527,4.5358,4.5348,4.5364,4.5384,4.5535,4.5576,4.5497,4.5758,4.5685,4.5705,4.5726,4.5749,4.5767,4.5754,4.5436,0,0,0,0,0,4.4845,4.4945,4.5015,4.5153,4.519,4.5231,4.5289,4.5295,4.537,4.54,4.5451,4.5525,4.5624,4.5689,4.5783,4.5955,4.5974,4.6031,4.605,4.6064,4.6081,4.6175,4.6202,4.5921,4.5921,4.592,0,0,4.4913,4.4972,4.5034,4.5167,4.5223,4.5326,4.5257,4.5368,4.5445,4.5417,4.5559,4.56,4.5684,4.5844,4.5918,4.5883,4.6163,4.608,4.6092,4.61,4.6191,4.6218,4.6241,4.5929,4.5928,4.5926,0,0,4.5088,4.5143,4.5264,4.5322,4.5407,4.5434,4.5463,4.5545,4.557,4.5713,4.5694,4.5786,4.5956,4.6017,4.607,4.6269,4.6249,4.6299,4.6395,4.6487,4.6509,4.6528,4.66,4.6625,4.6315,4.6316,4.6316,0,4.5161,4.5315,4.5329,4.5443,4.5502,4.5481,4.5604,4.5659,4.5772,4.5813,4.5773,4.5986,4.6041,4.6215,4.6264,4.6308,4.6342,4.6289,4.6504,4.6524,4.6543,4.6611,4.6638,4.6321,4.632,4.632,4.6319,0,4.5401,4.5508,4.5596,4.5704,4.5774,4.5892,4.5924,4.5992,4.5993,4.6024,4.617,4.6235,4.6343,4.6385,4.6386,4.656,4.6536,4.65,4.6427,4.6575,4.6639,4.6665,4.6329,4.6327,4.6325,4.6324,0,0,4.5617,4.5732,4.5764,4.5814,4.5907,4.599,4.6108,4.6212,4.6271,4.6349,4.6448,4.6593,4.6561,4.6621,4.6629,4.6709,4.6863,4.6664,4.6666,4.6698,4.7059,4.7085,4.7115,4.6851,4.6856,4.686,4.7052,0,4.5801,4.6007,4.6023,4.621,4.6309,4.6291,4.6393,4.6462,4.6494,4.6584,4.662,4.6722,4.6671,4.6707,4.6786,4.6828,4.6936,4.6814,4.6944,4.6948,4.6923,4.7149,4.7177,4.7355,4.7077,4.7081,4.7085,0,4.6043,4.6128,4.6324,4.6403,4.6446,4.6537,4.6635,4.6721,4.6798,4.6816,4.6884,4.6881,4.7002,4.6925,4.7093,4.701,4.7064,4.7092,4.71,4.7112,4.7025,4.7167,4.7412,4.7439,4.7124,4.7121,4.7118,0,4.6181,4.6345,4.6484,4.6526,4.6622,4.6687,4.6731,4.6803,4.6865,4.6951,4.6991,4.709,4.7144,4.7221,4.7245,4.7187,4.7412,4.7337,4.7431,4.743,4.7479,4.7475,4.7735,4.7514,4.7514,4.7513,4.7513,0,4.6385,4.6505,4.6547,4.6632,4.6767,4.6785,4.6918,4.6958,4.7023,4.7116,4.7106,4.7194,4.722,4.7313,4.7333,4.7469,4.7493,4.7511,4.7515,4.7512,4.751,4.7548,4.7536,4.752,4.7519,4.7517,4.7516,0,4.6562,4.6595,4.6745,4.6823,4.6846,4.6942,4.7009,4.7092,4.7123,4.7241,4.7269,4.7318,4.7427,4.7458,4.7589,4.7602,4.7762,4.7754,4.7735,4.7735,4.7827,4.7818,4.812,4.8161,4.7913,4.7916,4.7918,0,4.6689,4.6782,4.687,4.6932,4.6977,4.7076,4.714,4.7161,4.7227,4.7323,4.7394,4.7501,4.7587,4.7762,4.7809,4.7909,4.7904,4.8003,4.7919,4.7913,4.7905,4.7899,4.7909,4.8019,4.8021,4.8024,4.8025,0,4.6912,4.6924,4.7015,4.7113,4.7188,4.7266,4.7341,4.7392,4.7424,4.7499,4.7609,4.7677,4.781,4.7916,4.8018,4.8062,4.805,4.8051,4.8078,4.8076,4.8061,4.807,4.7778,4.8044,4.8042,4.8041,4.804,4.8039,4.7069,4.715,4.7225,4.7327,4.7385,4.7455,4.7537,4.7578,4.767,4.778,4.7787,4.7907,4.7983,4.8117,4.8168,4.8262,4.8233,4.8272,4.8282,4.8291,4.8299,4.8047,4.8281,4.828,4.828,4.8279,4.8279,0,4.7291,4.7338,4.7432,4.7536,4.7617,4.7597,4.7679,4.7748,4.7854,4.7925,4.801,4.8138,4.8241,4.8297,4.84,4.8465,4.8462,4.8491,4.8486,4.8497,4.8319,4.8285,4.8492,4.8492,4.8492,4.8492,4.8492,4.8492,4.7416,4.7552,4.7573,4.7738,4.7785,4.7902,4.795,4.8015,4.8072,4.8215,4.83,4.8336,4.8402,4.8509,4.8603,4.8617,4.8656,4.8689,4.8699,4.8531,4.851,4.8489,4.8457,4.8697,4.8697,4.8869,4.8871,4.8872]},{"header":{"parameterUnit":"m.s-1","parameterCategory":1,"la1":30.2991,"la2":30.254,"lo1":-89.0895,"lo2":-89.0444,"dy":0.0017,"dx":0.0017,"nx":28,"ny":28,"refTime":"2024-04-03T09:00:00:Z","depth":0,"parameterNumber":3,"parameterNumberName":"V-component_of_WINDS"},"data":[0,0,0,0,0,0,0,0,0,0,0,0,0,0,0,0,0,0,0,0,0,0,0,0,0,0,0,0,0,0,0,0,0,0,0,0,0,0,0,0,0,0,0,0,0,0,0,0,0,0,0,0,0,0,0,0,0,0,-3.3521,-3.3523,0,-3.3719,-3.3722,-3.3724,-3.3704,-3.3701,-3.3698,-3.3695,-3.3902,-3.391,-3.3919,0,0,0,0,0,0,0,0,0,0,0,0,0,-3.3128,-3.3136,-3.3521,-3.3523,-3.3526,-3.3719,-3.3722,-3.3725,-3.3704,-3.3701,-3.3697,-3.3693,-3.3899,-3.3909,-3.3919,0,0,0,0,0,0,0,0,0,0,0,0,0,-3.331,-3.3138,-3.352,-3.3539,-3.3542,-3.3719,-3.3722,-3.3725,-3.3705,-3.37,-3.3696,-3.3691,-3.3896,-3.3908,-3.3921,-3.4092,0,0,-3.3959,-3.3965,0,0,0,0,0,0,0,0,-3.33,-3.3325,-3.3534,-3.3538,-3.3542,-3.3682,-3.3659,-3.3849,-3.3706,-3.3644,-3.3695,-3.3689,-3.3833,-3.385,-3.3898,-3.4102,-3.4111,-3.396,-3.3968,-3.3974,-3.3977,0,0,0,0,0,0,0,-3.3287,-3.3316,-3.3599,-3.3537,-3.3542,-3.3539,-3.3559,-3.3695,-3.3762,-3.3649,-3.3648,-3.3671,-3.3834,-3.3886,-3.3903,-3.4114,-3.396,-3.3971,-3.3979,-3.3984,-3.4471,-3.4476,0,0,0,0,0,0,-3.327,-3.3306,-3.3593,-3.3605,-3.3407,-3.355,-3.3573,-3.3642,-3.3761,-3.3774,-3.3675,-3.3669,-3.3867,-3.3888,-3.391,-3.412,-3.3973,-3.3985,-3.3993,-3.4465,-3.4472,-3.4478,0,0,0,0,0,0,-3.3261,-3.3295,-3.3585,-3.3455,-3.3492,-3.3561,-3.3639,-3.3648,-3.37,-3.378,-3.3793,-3.3715,-3.3864,-3.3892,-3.4047,-3.4127,-3.3991,-3.4002,-3.4459,-3.4467,-3.4475,-3.454,0,0,0,0,0,0,-3.325,-3.3293,-3.3357,-3.3457,-3.3499,-3.3718,-3.3644,-3.3656,-3.3721,-3.3716,-3.3821,-3.3834,-3.3862,-3.4028,-3.406,-3.4142,-3.4012,-3.4452,-3.4463,-3.4472,-3.4531,-3.4549,-3.4565,0,0,0,0,0,-3.3236,-3.3369,-3.3361,-3.3396,-3.3581,-3.3722,-3.3747,-3.3775,-3.3728,-3.3794,-3.3846,-3.3831,-3.4113,-3.4045,-3.408,-3.4166,-3.4447,-3.446,-3.4471,-3.4524,-3.4546,-3.4565,0,0,0,0,0,0,-3.3278,-3.3382,-3.3374,-3.3543,-3.3624,-3.3719,-3.3803,-3.3797,-3.3895,-3.3886,-3.3918,-3.3942,-3.4099,-3.4148,-3.407,-3.434,-3.4274,-3.4294,-3.4302,-3.4323,-3.434,-3.4325,-3.4023,0,0,0,0,0,-3.3306,-3.3411,-3.3497,-3.3637,-3.3678,-3.3734,-3.3796,-3.3811,-3.3897,-3.3932,-3.3995,-3.408,-3.4188,-3.4258,-3.4362,-3.4538,-3.4562,-3.4615,-3.4632,-3.4646,-3.4662,-3.4761,-3.4786,-3.4517,-3.4517,-3.4517,0,0,-3.3367,-3.3437,-3.3501,-3.3647,-3.3712,-3.3821,-3.3763,-3.3881,-3.3962,-3.395,-3.41,-3.415,-3.4247,-3.4414,-3.449,-3.446,-3.4742,-3.4661,-3.4671,-3.4681,-3.4776,-3.4801,-3.4824,-3.4525,-3.4524,-3.4522,0,0,-3.3533,-3.3596,-3.372,-3.3786,-3.3884,-3.392,-3.395,-3.4046,-3.4079,-3.4229,-3.4223,-3.4321,-3.4506,-3.4576,-3.4635,-3.4829,-3.4819,-3.4862,-3.495,-3.5046,-3.5067,-3.5086,-3.5156,-3.5181,-3.4878,-3.4878,-3.4879,0,-3.3596,-3.3759,-3.3785,-3.3904,-3.3969,-3.3962,-3.4089,-3.4152,-3.4279,-3.4325,-3.4289,-3.4521,-3.4586,-3.4769,-3.4817,-3.4865,-3.4901,-3.485,-3.5062,-3.5081,-3.5099,-3.5167,-3.5193,-3.4883,-3.4883,-3.4882,-3.4882,0,-3.3833,-3.3946,-3.4034,-3.4156,-3.4232,-3.4354,-3.44,-3.4474,-3.4482,-3.4523,-3.4678,-3.4755,-3.4875,-3.4919,-3.4929,-3.5105,-3.5083,-3.5054,-3.4989,-3.5129,-3.5193,-3.5219,-3.489,-3.4888,-3.4887,-3.4885,0,0,-3.4031,-3.4165,-3.4198,-3.4253,-3.4361,-3.445,-3.4573,-3.4689,-3.4752,-3.484,-3.4945,-3.5102,-3.5076,-3.5144,-3.5162,-3.5245,-3.5395,-3.5206,-3.5209,-3.524,-3.5596,-3.5618,-3.5647,-3.5389,-3.5394,-3.5398,-3.5588,0,-3.4208,-3.4424,-3.4451,-3.4644,-3.4749,-3.4744,-3.4851,-3.493,-3.4972,-3.5069,-3.5115,-3.5226,-3.5183,-3.5224,-3.5306,-3.5359,-3.5467,-3.5346,-3.5489,-3.5494,-3.5465,-3.568,-3.5704,-3.5879,-3.5613,-3.5617,-3.562,0,-3.4444,-3.4538,-3.4741,-3.4835,-3.488,-3.4976,-3.5085,-3.5177,-3.5267,-3.5292,-3.5368,-3.5375,-3.5504,-3.5433,-3.5612,-3.5529,-3.5589,-3.5624,-3.5632,-3.5647,-3.5566,-3.5703,-3.5936,-3.5963,-3.566,-3.5657,-3.5654,0,-3.457,-3.4747,-3.4891,-3.4939,-3.5052,-3.512,-3.5171,-3.5256,-3.5324,-3.542,-3.5465,-3.5575,-3.5635,-3.5721,-3.5759,-3.5703,-3.5936,-3.5868,-3.5962,-3.5961,-3.6012,-3.6009,-3.6259,-3.6049,-3.6049,-3.6048,-3.6048,0,-3.4766,-3.489,-3.4949,-3.5038,-3.5178,-3.5209,-3.5347,-3.5395,-3.5471,-3.5571,-3.5573,-3.5667,-3.571,-3.5811,-3.5842,-3.5986,-3.6014,-3.6038,-3.6045,-3.6039,-3.6036,-3.6079,-3.6069,-3.6055,-3.6054,-3.6052,-3.6051,0,-3.493,-3.4974,-3.5132,-3.5226,-3.5252,-3.5351,-3.5433,-3.552,-3.556,-3.5686,-3.5718,-3.5782,-3.5901,-3.5947,-3.6093,-3.6113,-3.6281,-3.6277,-3.625,-3.6252,-3.6344,-3.6335,-3.6633,-3.6674,-3.6435,-3.6437,-3.6439,0,-3.5053,-3.5148,-3.5252,-3.5318,-3.5371,-3.5478,-3.5547,-3.5581,-3.5654,-3.5764,-3.5839,-3.5957,-3.6053,-3.6244,-3.6305,-3.6417,-3.6417,-3.6514,-3.6434,-3.6425,-3.6421,-3.6415,-3.6425,-3.6529,-3.6531,-3.6533,-3.6535,0,-3.5266,-3.5284,-3.5382,-3.549,-3.5573,-3.5659,-3.5744,-3.5798,-3.5846,-3.5928,-3.6049,-3.6123,-3.6272,-3.639,-3.6505,-3.6559,-3.6557,-3.6559,-3.6587,-3.6582,-3.6563,-3.6576,-3.6292,-3.6553,-3.6551,-3.6549,-3.6548,-3.6548,-3.5415,-3.55,-3.5586,-3.5697,-3.5764,-3.5843,-3.5929,-3.598,-3.6081,-3.6204,-3.6219,-3.6349,-3.6438,-3.6592,-3.6651,-3.6755,-3.673,-3.677,-3.678,-3.679,-3.6797,-3.6545,-3.6776,-3.6776,-3.6775,-3.6775,-3.6775,0,-3.5629,-3.5685,-3.5786,-3.5904,-3.5991,-3.5979,-3.6072,-3.6146,-3.6261,-3.6343,-3.6438,-3.6578,-3.6693,-3.6763,-3.6879,-3.6949,-3.695,-3.6978,-3.6974,-3.6987,-3.6813,-3.6777,-3.6975,-3.6975,-3.6975,-3.6975,-3.6975,-3.6975,-3.5752,-3.5895,-3.5923,-3.61,-3.6155,-3.6282,-3.6336,-3.641,-3.6476,-3.6631,-3.6726,-3.677,-3.6849,-3.6971,-3.7076,-3.7094,-3.7137,-3.7168,-3.7184,-3.702,-3.6999,-3.6979,-3.6946,-3.7176,-3.7177,-3.7349,-3.7351,-3.7352]}]]